Location: Dompnac
(44.5644°N, 4.1026°E)
Time: 18:18:38
(UTC+00:00)

Cosmos 1634 Rocket - Pass Details

Date: 23 January 2021
Orbit: 961 x 991 km, 82.9° (Epoch: 05 March)

Event Time Altitude Azimuth Distance (km) Brightness Sun altitude
Rises 05:01:33 0° 163° (SSE) 3,630 7.3 -22.9°
Reaches altitude 10° 05:04:10 10° 156° (SSE) 2,688 6.7 -22.5°
Maximum altitude 05:09:50 41° 89° (E) 1,374 5.3 -21.5°
Drops below altitude 10° 05:15:33 10° 22° (NNE) 2,710 6.5 -20.4°
Sets 05:18:11 0° 15° (NNE) 3,664 7.1 -20.0°
